Macomb, IL

10:31 PM CDT on May 21, 2018 (GMT -0500)
Macomb Municipal

Weather History for KMQB - February, 2014

Change the Weather History Date:

Saturday, February 15, 2014

  Actual Average (KBRL) Record (KBRL)
Temperature  
Mean Temperature 8 °F -  
Max Temperature 22 °F 30 °F 74 °F (1921)
Min Temperature -6 °F 19 °F -15 °F (1905)
Degree Days  
Heating Degree Days 57    
Moisture  
Dew Point 6 °F    
Average Humidity 87    
Maximum Humidity 93    
Minimum Humidity 73    
Precipitation  
Precipitation 0.02 in - - ()
Sea Level Pressure  
Sea Level Pressure 30.05 in    
Wind  
Wind Speed 8 mph (South)    
Max Wind Speed 15 mph    
Max Gust Speed -    
Visibility 9 miles    
Events Snow    
Averages and records for this station are not official NWS values.
T = Trace of Precipitation, MM = Missing Value Source: NWS Daily Summary

Daily Weather History Graph

Daily Weather History Graph

Search for Another Location

Airport or City:

Astronomy

Feb. 15, 2014 Rise Set
Actual Time 6:56 AM CST 5:37 PM CST
Civil Twilight 6:28 AM CST 6:05 PM CST
Nautical Twilight 5:56 AM CST 6:37 PM CST
Astronomical Twilight 5:24 AM CST 7:09 PM CST
Moon 6:38 PM CST (2/15) 6:54 AM CST (2/15)
Length of Visible Light 11h 37m
Length of Day
10h 41m
Waxing Gibbous, 99% of the Moon is Illuminated
Feb 15
Waxing Gibbous
Feb 22
Last Quarter
Mar 1
New
Mar 8
First Quarter
Mar 16
Full

Hourly Weather History & Observations

Time (CST) Temp. Windchill Dew Point Humidity Pressure Visibility Wind Dir Wind Speed Gust Speed Precip Events Conditions
12:15 AM 2.8 °F -15.0 °F -0.4 °F 86% 30.08 in 10.0 mi WNW 13.8 mph - N/A   Clear
12:35 AM 2.3 °F -16.4 °F -0.8 °F 87% 30.10 in 10.0 mi WNW 15.0 mph - N/A   Clear
12:55 AM 1.9 °F -14.7 °F -1.3 °F 86% 30.10 in 10.0 mi WNW 11.5 mph - N/A   Clear
1:15 AM 0.3 °F -16.7 °F -3.1 °F 85% 30.09 in 10.0 mi WNW 11.5 mph - N/A   Clear
1:35 AM -0.0 °F -15.3 °F -2.9 °F 88% 30.09 in 10.0 mi WNW 9.2 mph - N/A   Clear
1:55 AM -2.4 °F -18.2 °F -5.3 °F 88% 30.09 in 10.0 mi WNW 9.2 mph - N/A   Clear
2:15 AM -2.7 °F -17.5 °F -5.4 °F 88% 30.08 in 10.0 mi NW 8.1 mph - N/A   Clear
2:35 AM -3.6 °F -20.7 °F -6.2 °F 89% 30.10 in 10.0 mi WNW 10.4 mph - N/A   Clear
2:55 AM -2.0 °F -16.6 °F -4.9 °F 88% 30.10 in 10.0 mi WNW 8.1 mph - N/A   Clear
3:15 AM -2.7 °F -16.2 °F -5.6 °F 87% 30.10 in 10.0 mi NW 6.9 mph - N/A   Clear
3:35 AM -2.4 °F -17.1 °F -5.3 °F 88% 30.09 in 10.0 mi NNW 8.1 mph - N/A   Clear
3:55 AM -4.2 °F - -7.1 °F 87% 30.08 in 10.0 mi Calm Calm - N/A   Clear
4:15 AM -0.6 °F -8.5 °F -3.3 °F 88% 30.09 in 10.0 mi NW 3.5 mph - N/A   Clear
4:35 AM -6.5 °F - -9.6 °F 87% 30.10 in 10.0 mi Calm Calm - N/A   Clear
4:55 AM -6.7 °F -17.7 °F -9.8 °F 87% 30.09 in 10.0 mi West 4.6 mph - N/A   Clear
5:15 AM -4.0 °F -17.8 °F -6.7 °F 88% 30.10 in 10.0 mi WSW 6.9 mph - N/A   Clear
5:35 AM -4.5 °F -19.7 °F -7.6 °F 87% 30.12 in 10.0 mi WSW 8.1 mph - N/A   Clear
5:55 AM -5.8 °F -16.7 °F -9.2 °F 85% 30.12 in 10.0 mi WSW 4.6 mph - N/A   Clear
6:15 AM -6.0 °F -18.6 °F -9.8 °F 84% 30.12 in 10.0 mi West 5.8 mph - N/A   Clear
6:35 AM -4.5 °F -16.9 °F -7.4 °F 87% 30.12 in 10.0 mi West 5.8 mph - N/A   Clear
6:55 AM -0.9 °F -12.7 °F -3.6 °F 88% 30.12 in 10.0 mi West 5.8 mph - N/A   Clear
7:15 AM -0.8 °F - -4.0 °F 86% 30.12 in 10.0 mi Calm Calm - N/A   Clear
7:35 AM -1.5 °F - -4.5 °F 87% 30.11 in 10.0 mi Calm Calm - N/A   Clear
7:55 AM -1.3 °F - -4.4 °F 87% 30.13 in 10.0 mi Calm Calm - N/A   Clear
8:15 AM -3.3 °F -11.6 °F -6.7 °F 85% 30.12 in 10.0 mi SW 3.5 mph - N/A   Clear
8:35 AM -2.2 °F - -5.4 °F 86% 30.13 in 10.0 mi Calm Calm - N/A   Clear
8:55 AM -1.5 °F - -4.5 °F 87% 30.13 in 10.0 mi Calm Calm - N/A   Clear
9:15 AM 1.9 °F -5.6 °F -0.9 °F 88% 30.11 in 10.0 mi ESE 3.5 mph - N/A   Clear
9:35 AM 4.8 °F -2.3 °F 2.3 °F 89% 30.11 in 10.0 mi SE 3.5 mph - N/A   Clear
9:55 AM 6.6 °F -3.7 °F 4.1 °F 89% 30.10 in 10.0 mi SE 5.8 mph - N/A   Clear
10:15 AM 6.6 °F -3.7 °F 4.1 °F 89% 30.09 in 10.0 mi SE 5.8 mph - N/A   Clear
10:35 AM 7.5 °F -5.0 °F 5.0 °F 89% 30.11 in 10.0 mi South 8.1 mph - N/A   Clear
10:55 AM 8.4 °F -2.8 °F 6.1 °F 90% 30.13 in 10.0 mi South 6.9 mph - N/A   Clear
11:15 AM 10.0 °F -1.9 °F 7.5 °F 90% 30.12 in 10.0 mi SSE 8.1 mph - N/A   Clear
11:35 AM 10.4 °F -0.4 °F 7.5 °F 88% 30.12 in 10.0 mi South 6.9 mph - N/A   Clear
11:55 AM 12.7 °F -1.1 °F 8.4 °F 83% 30.12 in 10.0 mi South 11.5 mph - N/A   Clear
12:15 PM 14.2 °F 3.1 °F 8.1 °F 77% 30.10 in 10.0 mi South 8.1 mph - N/A   Clear
12:35 PM 14.9 °F 4.0 °F 8.6 °F 76% 30.08 in 10.0 mi SSE 8.1 mph - N/A   Scattered Clouds
12:55 PM 15.6 °F 4.0 °F 8.6 °F 74% 30.07 in 10.0 mi SSE 9.2 mph - N/A   Scattered Clouds
1:15 PM 16.2 °F 4.7 °F 8.8 °F 73% 30.05 in 10.0 mi SSE 9.2 mph - N/A   Mostly Cloudy
1:35 PM 15.3 °F 2.0 °F 8.6 °F 75% 30.04 in 10.0 mi SSE 11.5 mph - N/A   Overcast
1:55 PM 15.3 °F 3.5 °F 9.5 °F 78% 30.03 in 1.5 mi SSE 9.2 mph - N/A Snow Light Snow
2:15 PM 14.9 °F 3.1 °F 11.3 °F 86% 30.01 in 0.5 mi SE 9.2 mph - N/A Snow Snow
2:35 PM 15.3 °F 1.4 °F 12.6 °F 89% 29.99 in 0.8 mi SE 12.7 mph - N/A Snow Light Snow
2:55 PM 15.4 °F 2.3 °F 12.7 °F 89% 29.99 in 1.2 mi SSE 11.5 mph - N/A Snow Light Snow
3:15 PM 15.8 °F 2.1 °F 13.5 °F 90% 29.98 in 1.0 mi SSE 12.7 mph - N/A Snow Light Snow
3:35 PM 16.2 °F 3.9 °F 13.8 °F 90% 29.99 in 0.5 mi SSE 10.4 mph - N/A Snow Snow
3:55 PM 16.3 °F 4.9 °F 14.0 °F 90% 29.98 in 1.0 mi SE 9.2 mph - N/A Snow Light Snow
4:15 PM 16.5 °F 6.0 °F 14.4 °F 91% 29.99 in 1.0 mi SE 8.1 mph - 0.01 in Snow Light Snow
4:35 PM 16.7 °F 5.3 °F 14.7 °F 92% 29.97 in 1.0 mi ESE 9.2 mph - 0.01 in Snow Light Snow
4:55 PM 17.2 °F 5.2 °F 15.4 °F 93% 29.96 in 2.0 mi ESE 10.4 mph - 0.01 in Snow Light Snow
5:15 PM 17.6 °F 7.3 °F 15.6 °F 92% 29.96 in 10.0 mi SE 8.1 mph - N/A   Overcast
5:35 PM 18.0 °F 4.8 °F 15.8 °F 91% 29.96 in 10.0 mi SSE 12.7 mph - N/A   Overcast
5:55 PM 17.6 °F 4.3 °F 15.4 °F 91% 29.95 in 10.0 mi SSE 12.7 mph - N/A   Overcast
6:15 PM 17.6 °F 4.3 °F 15.6 °F 92% 29.97 in 10.0 mi SSE 12.7 mph - N/A   Overcast
6:35 PM 18.5 °F 8.4 °F 16.5 °F 92% 29.99 in 10.0 mi South 8.1 mph - N/A   Overcast
6:55 PM 19.0 °F 10.0 °F 16.5 °F 90% 29.98 in 10.0 mi South 6.9 mph - N/A   Overcast
7:15 PM 19.2 °F 7.7 °F 16.2 °F 88% 29.97 in 10.0 mi South 10.4 mph - N/A   Overcast
7:35 PM 19.4 °F 9.5 °F 16.5 °F 89% 29.97 in 10.0 mi SSE 8.1 mph - N/A   Overcast
7:55 PM 19.8 °F 10.8 °F 16.7 °F 88% 29.98 in 10.0 mi South 6.9 mph - N/A   Overcast
8:15 PM 19.9 °F 12.1 °F 16.7 °F 87% 29.98 in 10.0 mi South 5.8 mph - N/A   Overcast
8:35 PM 20.1 °F 11.3 °F 17.1 °F 88% 29.98 in 10.0 mi South 6.9 mph - N/A   Overcast
8:55 PM 20.3 °F 10.6 °F 17.1 °F 87% 29.97 in 10.0 mi South 8.1 mph - N/A   Overcast
9:15 PM 20.7 °F 11.9 °F 17.2 °F 87% 29.98 in 10.0 mi South 6.9 mph - N/A   Overcast
9:35 PM 21.2 °F 13.6 °F 17.4 °F 85% 29.97 in 10.0 mi South 5.8 mph - N/A   Overcast
9:55 PM 21.2 °F 12.6 °F 17.4 °F 85% 29.97 in 10.0 mi South 6.9 mph - N/A   Overcast
10:15 PM 21.6 °F 16.8 °F 17.6 °F 85% 29.97 in 10.0 mi South 3.5 mph - N/A   Overcast
10:35 PM 21.9 °F 15.7 °F 17.6 °F 83% 29.96 in 10.0 mi SSW 4.6 mph - N/A   Overcast
10:55 PM 22.1 °F 17.4 °F 18.0 °F 84% 29.96 in 10.0 mi SSW 3.5 mph - 0.01 in   Overcast
11:15 PM 22.6 °F 15.3 °F 18.1 °F 83% 29.96 in 10.0 mi SW 5.8 mph - N/A   Overcast
11:35 PM 22.6 °F 15.3 °F 18.1 °F 83% 29.96 in 10.0 mi SW 5.8 mph - N/A   Overcast
11:55 PM 22.6 °F 15.3 °F 18.3 °F 83% 29.96 in 10.0 mi SW 5.8 mph - N/A   Overcast